Location: Bednik
(45.3500°N, 16.3833°E)
Time: 05:11:16
(UTC+00:00)

Cosmos 1867 - Pass Details

Date: 08 August 2020
Orbit: 777 x 798 km, 65.0° (Epoch: 23 September)

Event Time Altitude Azimuth Distance (km) Brightness Sun altitude
Rises 20:59:19 0° 230° (SW) 3,271 6.7 -23.0°
Reaches altitude 10° 21:01:47 10° 235° (SW) 2,349 6.0 -23.2°
Maximum altitude 21:07:03 52° 311° (NW) 984 4.3 -23.7°
Drops below altitude 10° 21:12:23 10° 28° (NNE) 2,374 6.4 -24.2°
Sets 21:14:54 0° 34° (NNE) 3,309 7.2 -24.4°
